| time (UTC) | temp F | wind direction | speed knots | gust knots | rain 1hr in | rain 24hr in | rain mn in | humidity % | barometer mb |
| 20260510213852 | 62 | 257 | 0.0 | 2.6 | 0.00 | 0.17 | 0.17 | 76 | 1015.8 |
| 20260510212952 | 62 | 0 | 0.0 | 0.0 | 0.00 | 0.17 | 0.17 | 76 | 1015.9 |
| 20260510212052 | 62 | 0 | 0.0 | 0.0 | 0.00 | 0.17 | 0.17 | 75 | 1015.9 |
| 20260510211152 | 62 | 0 | 0.0 | 0.0 | 0.00 | 0.17 | 0.17 | 75 | 1015.9 |
| 20260510210252 | 62 | 0 | 0.0 | 0.0 | 0.00 | 0.17 | 0.17 | 74 | 1015.8 |
| 20260510205351 | 62 | 232 | 0.9 | 0.9 | 0.00 | 0.17 | 0.17 | 74 | 1015.7 |
| 20260510204452 | 63 | 239 | 0.9 | 7.8 | 0.00 | 0.17 | 0.17 | 73 | 1015.6 |
| 20260510203612 | 63 | 243 | 1.7 | 6.1 | 0.00 | 0.17 | 0.17 | 72 | 1015.4 |
| 20260510202651 | 63 | 247 | 3.5 | 8.7 | 0.00 | 0.17 | 0.17 | 72 | 1015.3 |
| 20260510201751 | 63 | 242 | 1.7 | 12.2 | 0.00 | 0.17 | 0.17 | 71 | 1015.3 |
| 20260510200913 | 63 | 241 | 1.7 | 7.0 | 0.00 | 0.18 | 0.17 | 70 | 1015.2 |
| 20260510195951 | 64 | 238 | 3.5 | 10.4 | 0.00 | 0.18 | 0.17 | 69 | 1015.1 |
| 20260510195051 | 64 | 242 | 2.6 | 13.0 | 0.00 | 0.18 | 0.17 | 68 | 1014.9 |
| 20260510194151 | 64 | 244 | 1.7 | 10.4 | 0.00 | 0.18 | 0.17 | 68 | 1015.0 |
| 20260510193312 | 64 | 247 | 3.5 | 8.7 | 0.00 | 0.18 | 0.17 | 67 | 1014.8 |
| 20260510192351 | 65 | 246 | 3.5 | 11.3 | 0.00 | 0.18 | 0.17 | 67 | 1014.8 |
| 20260510191451 | 65 | 241 | 2.6 | 8.7 | 0.00 | 0.18 | 0.17 | 66 | 1014.7 |
| 20260510190551 | 65 | 246 | 2.6 | 13.9 | 0.00 | 0.18 | 0.17 | 64 | 1014.8 |
| 20260510185651 | 65 | 244 | 2.6 | 12.2 | 0.00 | 0.18 | 0.17 | 64 | 1014.7 |
| 20260510184751 | 66 | 243 | 4.3 | 13.0 | 0.00 | 0.18 | 0.17 | 64 | 1014.7 |
| 20260510183851 | 66 | 243 | 3.5 | 12.2 | 0.00 | 0.18 | 0.17 | 62 | 1014.6 |
| 20260510183012 | 67 | 247 | 1.7 | 10.4 | 0.00 | 0.18 | 0.17 | 60 | 1014.5 |
| 20260510182051 | 67 | 251 | 2.6 | 16.5 | 0.00 | 0.18 | 0.17 | 60 | 1014.4 |
| 20260510181151 | 67 | 265 | 3.5 | 13.9 | 0.00 | 0.18 | 0.17 | 59 | 1014.3 |
| 20260510180251 | 67 | 262 | 0.9 | 13.0 | 0.00 | 0.18 | 0.17 | 58 | 1014.1 |
| 20260510175351 | 68 | 259 | 0.9 | 8.7 | 0.00 | 0.18 | 0.17 | 61 | 1014.2 |
| 20260510174451 | 68 | 243 | 1.7 | 13.0 | 0.00 | 0.18 | 0.17 | 61 | 1014.0 |
| 20260510173551 | 68 | 236 | 1.7 | 13.9 | 0.00 | 0.18 | 0.17 | 62 | 1014.0 |
| 20260510172651 | 68 | 245 | 1.7 | 13.0 | 0.00 | 0.18 | 0.17 | 61 | 1014.0 |
| 20260510171751 | 68 | 263 | 4.3 | 14.8 | 0.00 | 0.18 | 0.17 | 59 | 1014.1 |
| 20260510170851 | 68 | 240 | 4.3 | 18.2 | 0.00 | 0.18 | 0.17 | 57 | 1014.1 |
| 20260510165951 | 68 | 243 | 3.5 | 14.8 | 0.00 | 0.18 | 0.17 | 60 | 1013.9 |
| 20260510165051 | 68 | 253 | 3.5 | 15.6 | 0.00 | 0.18 | 0.17 | 60 | 1014.1 |
| 20260510164151 | 68 | 245 | 1.7 | 15.6 | 0.00 | 0.18 | 0.17 | 61 | 1014.2 |
| 20260510163312 | 68 | 245 | 2.6 | 13.9 | 0.00 | 0.18 | 0.17 | 64 | 1014.0 |
| 20260510162351 | 68 | 242 | 0.9 | 14.8 | 0.00 | 0.18 | 0.17 | 65 | 1014.0 |
| 20260510161451 | 67 | 257 | 0.9 | 10.4 | 0.00 | 0.18 | 0.17 | 66 | 1014.1 |
| 20260510160551 | 67 | 271 | 1.7 | 13.0 | 0.00 | 0.18 | 0.17 | 67 | 1014.1 |
| 20260510155651 | 66 | 273 | 1.7 | 13.0 | 0.00 | 0.18 | 0.17 | 66 | 1014.1 |
| 20260510154751 | 66 | 282 | 2.6 | 14.8 | 0.00 | 0.18 | 0.17 | 63 | 1014.3 |
| 20260510153912 | 67 | 265 | 1.7 | 18.2 | 0.00 | 0.18 | 0.17 | 60 | 1014.2 |
| 20260510152951 | 68 | 241 | 3.5 | 14.8 | 0.00 | 0.18 | 0.17 | 62 | 1013.9 |
| 20260510152051 | 68 | 238 | 5.2 | 19.1 | 0.00 | 0.18 | 0.17 | 61 | 1013.8 |
| 20260510151151 | 68 | 242 | 6.1 | 17.4 | 0.00 | 0.18 | 0.17 | 61 | 1013.9 |
| 20260510150251 | 68 | 252 | 6.1 | 17.4 | 0.00 | 0.18 | 0.17 | 62 | 1014.0 |
| 20260510145351 | 68 | 259 | 3.5 | 18.2 | 0.00 | 0.18 | 0.17 | 61 | 1014.1 |
| 20260510144451 | 69 | 249 | 6.1 | 17.4 | 0.00 | 0.18 | 0.17 | 60 | 1014.0 |
| 20260510143551 | 69 | 251 | 5.2 | 16.5 | 0.00 | 0.18 | 0.17 | 61 | 1014.1 |
| 20260510142711 | 68 | 244 | 5.2 | 20.0 | 0.00 | 0.18 | 0.17 | 60 | 1014.2 |
| 20260510141751 | 68 | 253 | 2.6 | 16.5 | 0.00 | 0.18 | 0.17 | 63 | 1014.2 |
| 20260510140850 | 67 | 228 | 0.0 | 16.5 | 0.00 | 0.18 | 0.17 | 67 | 1014.3 |
| 20260510135950 | 67 | 259 | 0.0 | 1.7 | 0.00 | 0.18 | 0.17 | 66 | 1014.2 |
| 20260510135050 | 66 | 265 | 0.0 | 5.2 | 0.00 | 0.18 | 0.17 | 72 | 1014.2 |
| 20260510134150 | 64 | 245 | 0.0 | 3.5 | 0.00 | 0.18 | 0.17 | 74 | 1014.4 |
| 20260510133250 | 63 | 257 | 0.0 | 5.2 | 0.00 | 0.18 | 0.17 | 78 | 1014.6 |
| 20260510132351 | 62 | 244 | 0.0 | 1.7 | 0.02 | 0.18 | 0.17 | 82 | 1014.5 |
| 20260510131451 | 61 | 278 | 0.9 | 11.3 | 0.02 | 0.18 | 0.17 | 83 | 1014.6 |
| 20260510130551 | 62 | 293 | 0.0 | 11.3 | 0.02 | 0.18 | 0.17 | 81 | 1014.7 |
| 20260510125651 | 63 | 271 | 0.9 | 8.7 | 0.02 | 0.18 | 0.17 | 80 | 1015.0 |
| 20260510124755 | 63 | 269 | 2.6 | 13.0 | 0.02 | 0.18 | 0.17 | 82 | 1014.6 |
| 20260510123850 | 63 | 273 | 7.0 | 23.5 | 0.02 | 0.18 | 0.17 | 83 | 1014.7 |
| 20260510122950 | 64 | 252 | 7.8 | 23.5 | 0.00 | 0.17 | 0.17 | 78 | 1014.6 |
| 20260510122050 | 66 | 238 | 7.8 | 20.9 | 0.00 | 0.21 | 0.16 | 69 | 1014.3 |
| 20260510121150 | 68 | 256 | 4.3 | 18.2 | 0.00 | 0.27 | 0.16 | 67 | 1014.0 |
| 20260510120250 | 68 | 241 | 0.9 | 15.6 | 0.00 | 0.40 | 0.16 | 65 | 1013.9 |
| 20260510115350 | 68 | 244 | 0.9 | 8.7 | 0.00 | 0.40 | 0.16 | 66 | 1013.8 |
| 20260510114450 | 68 | 255 | 2.6 | 13.0 | 0.01 | 0.40 | 0.16 | 64 | 1014.0 |
| 20260510113550 | 69 | 254 | 5.2 | 16.5 | 0.01 | 0.40 | 0.16 | 63 | 1013.9 |
| 20260510112650 | 68 | 240 | 5.2 | 16.5 | 0.01 | 0.43 | 0.16 | 66 | 1014.0 |
| 20260510111750 | 68 | 253 | 2.6 | 17.4 | 0.01 | 0.43 | 0.16 | 67 | 1014.0 |
| 20260510110850 | 68 | 243 | 1.7 | 18.2 | 0.01 | 0.43 | 0.16 | 67 | 1014.0 |
| 20260510110011 | 68 | 260 | 0.9 | 17.4 | 0.01 | 0.43 | 0.16 | 67 | 1013.9 |
| 20260510105050 | 68 | 250 | 0.0 | 4.3 | 0.00 | 0.42 | 0.16 | 69 | 1013.9 |
| 20260510104211 | 66 | 250 | 0.9 | 4.3 | 0.00 | 0.42 | 0.15 | 75 | 1014.1 |
| 20260510103250 | 66 | 243 | 0.9 | 13.9 | 0.03 | 0.42 | 0.15 | 77 | 1014.2 |
| 20260510102350 | 65 | 235 | 0.9 | 13.0 | 0.03 | 0.42 | 0.15 | 79 | 1014.2 |
| 20260510101450 | 64 | 241 | 0.9 | 11.3 | 0.03 | 0.42 | 0.15 | 81 | 1014.3 |
| 20260510100611 | 63 | 232 | 2.6 | 13.0 | 0.03 | 0.42 | 0.15 | 83 | 1014.4 |
| 20260510095650 | 62 | 245 | 5.2 | 11.3 | 0.03 | 0.42 | 0.15 | 83 | 1014.2 |
| 20260510094750 | 62 | 242 | 3.5 | 17.4 | 0.03 | 0.42 | 0.15 | 82 | 1014.3 |
| 20260510093850 | 65 | 257 | 1.7 | 13.0 | 0.01 | 0.39 | 0.13 | 82 | 1014.1 |
| 20260510093011 | 64 | 220 | 2.6 | 15.6 | 0.00 | 0.39 | 0.12 | 84 | 1013.9 |
| 20260510092111 | 64 | 220 | 4.3 | 15.6 | 0.00 | 0.39 | 0.12 | 85 | 1013.9 |
| 20260510091150 | 64 | 217 | 3.5 | 13.0 | 0.00 | 0.40 | 0.12 | 85 | 1013.7 |
| 20260510090310 | 63 | 226 | 2.6 | 13.0 | 0.00 | 0.40 | 0.12 | 86 | 1013.7 |
| 20260510085349 | 63 | 217 | 4.3 | 13.0 | 0.00 | 0.40 | 0.12 | 86 | 1013.7 |
| 20260510084450 | 62 | 224 | 3.5 | 13.0 | 0.06 | 0.40 | 0.12 | 87 | 1013.8 |
| 20260510083550 | 62 | 235 | 3.5 | 10.4 | 0.06 | 0.40 | 0.12 | 88 | 1013.8 |
| 20260510082649 | 61 | 251 | 2.6 | 7.8 | 0.06 | 0.40 | 0.12 | 90 | 1013.7 |
| 20260510081750 | 61 | 227 | 2.6 | 7.8 | 0.06 | 0.40 | 0.12 | 90 | 1013.7 |
| 20260510080910 | 61 | 222 | 3.5 | 9.6 | 0.06 | 0.40 | 0.12 | 91 | 1013.7 |
| 20260510075950 | 61 | 209 | 4.3 | 12.2 | 0.06 | 0.40 | 0.12 | 90 | 1013.6 |
| 20260510075049 | 61 | 189 | 2.6 | 8.7 | 0.06 | 0.40 | 0.12 | 91 | 1013.5 |
| 20260510074150 | 61 | 210 | 2.6 | 8.7 | 0.01 | 0.35 | 0.06 | 91 | 1013.5 |
| 20260510073310 | 61 | 217 | 2.6 | 8.7 | 0.01 | 0.35 | 0.06 | 91 | 1013.5 |
| 20260510072349 | 61 | 221 | 1.7 | 7.8 | 0.01 | 0.35 | 0.06 | 91 | 1013.5 |
| 20260510071511 | 60 | 192 | 2.6 | 7.8 | 0.01 | 0.36 | 0.06 | 91 | 1013.5 |
| 20260510070549 | 60 | 207 | 3.5 | 7.8 | 0.01 | 0.36 | 0.06 | 91 | 1013.5 |
| 20260510065649 | 60 | 222 | 0.9 | 7.0 | 0.03 | 0.37 | 0.06 | 91 | 1013.4 |
| 20260510064749 | 60 | 205 | 1.7 | 4.3 | 0.06 | 0.37 | 0.06 | 91 | 1013.3 |
| 20260510063849 | 60 | 219 | 0.9 | 5.2 | 0.06 | 0.36 | 0.06 | 91 | 1013.3 |
| 20260510062949 | 60 | 224 | 0.9 | 7.0 | 0.06 | 0.36 | 0.06 | 91 | 1013.3 |
| 20260510062110 | 60 | 260 | 0.0 | 6.1 | 0.06 | 0.36 | 0.06 | 91 | 1013.4 |
| 20260510061149 | 60 | 222 | 0.0 | 4.3 | 0.06 | 0.36 | 0.06 | 90 | 1013.4 |
| 20260510060249 | 60 | 215 | 0.9 | 1.7 | 0.06 | 0.36 | 0.06 | 90 | 1013.3 |
| 20260510055349 | 60 | 216 | 0.9 | 5.2 | 0.02 | 0.33 | 0.02 | 89 | 1013.3 |
| 20260510054511 | 60 | 204 | 0.9 | 7.0 | 0.00 | 0.31 | 0.00 | 89 | 1013.2 |
| 20260510053549 | 60 | 232 | 0.0 | 7.0 | 0.00 | 0.31 | 0.00 | 89 | 1013.1 |
| 20260510052649 | 60 | 228 | 0.9 | 6.1 | 0.00 | 0.31 | 0.00 | 88 | 1013.0 |
| 20260510051749 | 60 | 241 | 0.0 | 7.0 | 0.00 | 0.31 | 0.00 | 88 | 1013.1 |
| 20260510050911 | 60 | 207 | 0.0 | 2.6 | 0.00 | 0.31 | 0.00 | 88 | 1013.0 |
| 20260510045949 | 60 | 205 | 0.0 | 4.3 | 0.00 | 0.31 | 0.00 | 88 | 1013.0 |
| 20260510045049 | 60 | 225 | 0.0 | 6.1 | 0.00 | 0.31 | 0.00 | 88 | 1013.0 |
| 20260510044149 | 60 | 233 | 0.9 | 3.5 | 0.00 | 0.31 | 0.00 | 88 | 1012.9 |
| 20260510043249 | 60 | 232 | 0.9 | 7.0 | 0.00 | 0.31 | 0.00 | 88 | 1012.9 |
| 20260510042349 | 60 | 231 | 0.9 | 7.0 | 0.00 | 0.31 | 0.00 | 87 | 1012.9 |
| 20260510041449 | 60 | 232 | 0.0 | 6.1 | 0.00 | 0.31 | 0.00 | 87 | 1012.8 |
| 20260510040549 | 61 | 0 | 0.0 | 0.0 | 0.00 | 0.31 | 0.00 | 87 | 1012.8 |
| 20260510035649 | 61 | 207 | 0.9 | 5.2 | 0.00 | 0.31 | 0.00 | 88 | 1012.8 |
| 20260510034749 | 61 | 194 | 0.9 | 6.1 | 0.00 | 0.31 | 0.00 | 88 | 1012.8 |
| 20260510033849 | 61 | 196 | 0.0 | 7.8 | 0.00 | 0.31 | 0.00 | 88 | 1012.9 |
| 20260510032949 | 61 | 196 | 0.0 | 4.3 | 0.00 | 0.31 | 0.00 | 88 | 1012.9 |
| 20260510032049 | 61 | 221 | 0.9 | 2.6 | 0.00 | 0.31 | 0.00 | 88 | 1012.8 |
| 20260510031210 | 61 | 208 | 0.9 | 7.0 | 0.00 | 0.31 | 0.00 | 88 | 1012.7 |
| 20260510030249 | 61 | 217 | 0.9 | 8.7 | 0.00 | 0.31 | 0.00 | 88 | 1012.7 |
| 20260510025349 | 61 | 197 | 0.9 | 5.2 | 0.00 | 0.31 | 0.00 | 87 | 1012.7 |
| 20260510024448 | 61 | 189 | 0.9 | 8.7 | 0.00 | 0.31 | 0.00 | 87 | 1012.7 |
| 20260510023548 | 61 | 193 | 0.9 | 8.7 | 0.00 | 0.31 | 0.00 | 88 | 1012.8 |
| 20260510022648 | 61 | 183 | 0.9 | 6.1 | 0.00 | 0.31 | 0.00 | 88 | 1012.9 |
| 20260510021748 | 61 | 196 | 0.0 | 6.1 | 0.00 | 0.31 | 0.00 | 88 | 1012.9 |
| 20260510020910 | 61 | 205 | 0.9 | 3.5 | 0.00 | 0.31 | 0.00 | 88 | 1012.9 |
| 20260510015948 | 61 | 194 | 0.9 | 4.3 | 0.00 | 0.31 | 0.00 | 88 | 1013.1 |
| 20260510015048 | 61 | 178 | 0.0 | 6.1 | 0.00 | 0.31 | 0.00 | 88 | 1013.2 |
| 20260510014148 | 62 | 178 | 0.0 | 4.3 | 0.00 | 0.31 | 0.00 | 88 | 1013.3 |
| 20260510013248 | 62 | 191 | 0.9 | 5.2 | 0.00 | 0.31 | 0.00 | 88 | 1013.4 |
| 20260510012348 | 62 | 217 | 0.9 | 6.1 | 0.00 | 0.31 | 0.00 | 88 | 1013.3 |
| 20260510011448 | 62 | 210 | 0.9 | 7.0 | 0.00 | 0.31 | 0.00 | 88 | 1013.3 |
| 20260510010548 | 62 | 230 | 0.0 | 3.5 | 0.00 | 0.31 | 0.00 | 88 | 1013.5 |
| 20260510005649 | 62 | 225 | 0.9 | 5.2 | 0.00 | 0.31 | 0.00 | 87 | 1013.6 |
| 20260510004748 | 62 | 208 | 0.9 | 6.1 | 0.00 | 0.31 | 0.00 | 87 | 1013.8 |
| 20260510003848 | 62 | 216 | 0.9 | 5.2 | 0.00 | 0.31 | 0.00 | 87 | 1013.8 |
| 20260510002948 | 62 | 215 | 0.0 | 4.3 | 0.00 | 0.31 | 0.00 | 87 | 1013.8 |
| 20260510002048 | 62 | 209 | 0.0 | 1.7 | 0.00 | 0.31 | 0.00 | 86 | 1013.9 |
| 20260510001209 | 62 | 204 | 0.9 | 4.3 | 0.00 | 0.31 | 0.00 | 86 | 1013.9 |
| 20260510000248 | 62 | 209 | 0.9 | 5.2 | 0.00 | 0.31 | 0.00 | 86 | 1014.0 |
| 20260509235348 | 62 | 196 | 0.0 | 5.2 | 0.00 | 0.31 | 0.00 | 86 | 1014.0 |
| 20260509234448 | 62 | 191 | 0.9 | 5.2 | 0.00 | 0.31 | 0.00 | 86 | 1014.1 |
| 20260509233548 | 61 | 180 | 0.9 | 7.0 | 0.00 | 0.31 | 0.00 | 86 | 1014.1 |
| 20260509232709 | 62 | 201 | 0.0 | 6.1 | 0.00 | 0.31 | 0.00 | 85 | 1014.1 |
| 20260509231748 | 62 | 211 | 0.9 | 7.0 | 0.00 | 0.31 | 0.00 | 85 | 1014.2 |
| 20260509230848 | 62 | 204 | 0.9 | 6.1 | 0.00 | 0.31 | 0.00 | 85 | 1014.2 |
| 20260509225948 | 62 | 186 | 0.0 | 7.8 | 0.00 | 0.31 | 0.00 | 85 | 1014.2 |
| 20260509225048 | 62 | 207 | 0.0 | 2.6 | 0.00 | 0.31 | 0.00 | 85 | 1014.3 |
| 20260509224148 | 62 | 186 | 0.9 | 0.9 | 0.00 | 0.31 | 0.00 | 85 | 1014.2 |
| 20260509223248 | 62 | 199 | 0.0 | 6.1 | 0.00 | 0.31 | 0.00 | 85 | 1014.3 |
| 20260509222409 | 62 | 218 | 0.0 | 4.3 | 0.00 | 0.31 | 0.00 | 86 | 1014.2 |
| 20260509221448 | 62 | 219 | 0.9 | 5.2 | 0.00 | 0.31 | 0.00 | 86 | 1014.3 |
| 20260509220548 | 62 | 230 | 0.9 | 7.0 | 0.00 | 0.31 | 0.00 | 86 | 1014.2 |
| 20260509215648 | 62 | 230 | 0.9 | 7.8 | 0.00 | 0.31 | 0.31 | 85 | 1014.3 |
| 20260509214748 | 62 | 227 | 0.9 | 6.1 | 0.00 | 0.31 | 0.31 | 85 | 1014.2 |